Regional Weather Roundup
Issued by NWS

Home | Current Version | Previous Version | Graphics & Text | Print | Product List | Glossary On
Versions: 1 2 3 4 5 6 7 8 9 10 11 12 13 14 15 16 17 18 19 20 21 22 23 24 25 26 27 28
000
ASUS45 KSLC 200310
RWRUT

UTAH REGIONAL WEATHER ROUNDUP
NATIONAL WEATHER SERVICE SALT LAKE CITY UT
900 PM MDT SAT APR 19 2014

UTZ001>011-023>025-200400-

NORTHERN UTAH

CITY           SKY/WX    TMP DP  RH WIND       PRES   REMARKS
HILL AFB       PTCLDY    59  28  31 SE5       30.00R
LOGAN          CLEAR     55  35  47 SE6       29.98R
OGDEN          PTCLDY    63  30  28 SE5       29.98R
PROVO AIRPORT  MOCLDY    59  41  51 NW6       30.00R
SALT LAKE CITY PTCLDY    61  37  41 CALM      29.97R
VERNAL         MOCLDY    55  42  61 NW5       30.05R
WENDOVER       CLEAR     64  37  36 S15       29.96R
HEBER CITY     MOCLDY    45  34  65 E5        30.04R
WEST JORDAN    CLEAR     57  43  58 SW7       30.00R

$$

UTZ012>022-026-027-200400-

SOUTHERN UTAH

CITY           SKY/WX    TMP DP  RH WIND       PRES   REMARKS
BRYCE CANYON   MOCLDY    42  33  70 W7        30.20R
CEDAR CITY     MOCLDY    57  31  37 S7        30.07R
MILFORD        LGT RAIN  66  33  29 S16G39    30.03R
MOAB/CYNLANDS  CLEAR     57  39  51 W3        30.02S
PRICE          PTCLDY    57  33  40 CALM      30.09R
ST GEORGE      MOCLDY    73  32  21 S5        29.97R

$$

REGIONAL REPORTS     COLORADO/ARIZONA

CITY           SKY/WX    TMP DP  RH WIND       PRES   REMARKS
CRAIG, CO      PTCLDY    50  37  61 CALM      30.09R
GRAND JUNCTION PTCLDY    56  44  64 CALM      30.06R
RIFLE          MOCLDY    57  37  47 SW7       30.07R
MONTROSE       PTCLDY    54  47  77 SE6       30.11R
CORTEZ         CLEAR     51  31  46 CALM      30.08R
PAGE, AZ       MOCLDY    67  36  31 W5        30.03R
GRAND CANYON   CLEAR     42  39  89 CALM      30.16R
KINGMAN        CLOUDY    69  39  33 NE12      30.01R
FLAGSTAFF      PTCLDY    42  33  70 CALM      30.18R

$$

REGIONAL REPORTS    NEVADA/IDAHO/WYOMING

CITY           SKY/WX    TMP DP  RH WIND       PRES   REMARKS
LAS VEGAS, NV  PTCLDY    81  31  16 S6        29.86R
ELY            CLEAR     51  35  54 S9        30.08R
ELKO           CLEAR     58  28  32 SW5       29.98R
POCATELLO, ID  CLEAR     51  26  37 S7        29.95R
BURLEY         PTCLDY    57  33  40 CALM      29.90R
EVANSTON, WY   PTCLDY    46  27  47 SW9       30.10R
ROCK SPRINGS   PTCLDY    52  30  43 S9        30.07R

$$



USA.gov is the U.S. government's official web portal to all federal, state and local government web resources and services.